Starlink 30836

operational
NORAD ID: 58221 Int'l Des: 2023-170 Owner: SPXS Country: US Constellation: starlink
LEOCIRCULAR

About Starlink 30836

Description loading...

Live Position

Loading 3D Globe...

Upcoming Passes

Altitude History

Altitude vs Time

uPlot chart will show altitude changes over time

Two-Line Element Set

1 58221U 23170R 25257.19134189 .00000083 00000-0 21211-4 0 9990
2 58221 43.0033 74.6085 0001144 270.1171 89.9540 15.02533640103730
Epoch: Sep 14, 2025 • Age: 32 hours

Current Status

Altitude 558.8 km
Velocity 7.58 km/s
Sub-Earth Point -0.42°S, 115.28°W
Launch Date Nov 4, 2023
Age 1.8 years
Type internet

Technical Details

Classification Payload
Mass 730.00 kg
Dry Mass 700.00 kg
Total Mass 730.00 kg
Length 0.30 m
Diameter 4.10 m
Span 29.00 m
Shape Box + pan
Manufacturer SPXS
Bus Type Starlink V2M
Phase Status In Orbit
Owner/State SPXS/US

Large Constellations

Loading constellations...